| time (UTC) | temp F | wind direction | speed knots | gust knots | rain 1hr in | rain 24hr in | rain mn in | humidity % | barometer mb |
| 20260505040040 | 59 | 218 | 1.7 | 6.1 | 0.00 | 0.13 | 0.00 | 94 | 1021.3 |
| 20260505034540 | 58 | 203 | 0.9 | 4.3 | 0.00 | 0.13 | 0.00 | 93 | 1021.2 |
| 20260505033038 | 58 | 237 | 1.7 | 6.1 | 0.00 | 0.13 | 0.00 | 94 | 1021.3 |
| 20260505031544 | 58 | 215 | 2.6 | 6.1 | 0.00 | 0.13 | 0.00 | 94 | 1021.3 |
| 20260505030040 | 59 | 246 | 2.6 | 7.0 | 0.00 | 0.13 | 0.00 | 93 | 1021.5 |
| 20260505024537 | 59 | 0 | 1.7 | 7.0 | 0.00 | 0.13 | 0.13 | 94 | 1021.6 |
| 20260505023038 | 59 | 249 | 3.5 | 10.4 | 0.01 | 0.13 | 0.13 | 93 | 1021.5 |
| 20260505021542 | 59 | 231 | 5.2 | 10.4 | 0.05 | 0.13 | 0.13 | 93 | 1021.6 |
| 20260505020035 | 58 | 270 | 4.3 | 9.6 | 0.08 | 0.13 | 0.13 | 94 | 1021.6 |
| 20260505014541 | 58 | 250 | 5.2 | 8.7 | 0.12 | 0.13 | 0.13 | 94 | 1021.4 |
| 20260505013057 | 59 | 251 | 5.2 | 12.2 | 0.11 | 0.12 | 0.12 | 93 | 1021.4 |
| 20260505011537 | 59 | 249 | 6.1 | 12.2 | 0.07 | 0.08 | 0.08 | 93 | 1021.6 |
| 20260505010038 | 59 | 254 | 6.1 | 12.2 | 0.03 | 0.04 | 0.04 | 93 | 1021.4 |
| 20260505004542 | 59 | 278 | 2.6 | 8.7 | 0.00 | 0.01 | 0.01 | 93 | 1020.8 |
| 20260505003038 | 59 | 296 | 2.6 | 6.1 | 0.00 | 0.01 | 0.01 | 93 | 1020.9 |
| 20260505001537 | 60 | 269 | 4.3 | 9.6 | 0.00 | 0.01 | 0.01 | 93 | 1020.7 |
| 20260505000051 | 59 | 219 | 3.5 | 9.6 | 0.01 | 0.01 | 0.01 | 93 | 1020.6 |
| 20260504234538 | 59 | 258 | 3.5 | 9.6 | 0.01 | 0.01 | 0.01 | 93 | 1020.5 |
| 20260504233046 | 59 | 258 | 3.5 | 11.3 | 0.01 | 0.01 | 0.01 | 93 | 1020.6 |
| 20260504231539 | 59 | 253 | 5.2 | 9.6 | 0.01 | 0.01 | 0.01 | 94 | 1020.5 |
| 20260504230039 | 59 | 233 | 2.6 | 8.7 | 0.00 | 0.00 | 0.00 | 94 | 1020.5 |
| 20260504224537 | 59 | 256 | 5.2 | 11.3 | 0.00 | 0.00 | 0.00 | 94 | 1020.1 |
| 20260504223042 | 59 | 293 | 5.2 | 10.4 | 0.00 | 0.00 | 0.00 | 93 | 1020.3 |
| 20260504221535 | 59 | 235 | 4.3 | 8.7 | 0.00 | 0.00 | 0.00 | 93 | 1020.0 |
| 20260504220044 | 59 | 258 | 2.6 | 5.2 | 0.00 | 0.00 | 0.00 | 93 | 1019.9 |
| 20260504214545 | 59 | 258 | 2.6 | 7.0 | 0.00 | 0.00 | 0.00 | 93 | 1019.9 |
| 20260504213041 | 59 | 256 | 3.5 | 9.6 | 0.00 | 0.00 | 0.00 | 93 | 1019.7 |
| 20260504211539 | 59 | 260 | 3.5 | 12.2 | 0.00 | 0.00 | 0.00 | 92 | 1019.7 |
| 20260504210037 | 60 | 241 | 5.2 | 13.0 | 0.00 | 0.00 | 0.00 | 91 | 1019.5 |
| 20260504204540 | 60 | 249 | 7.0 | 14.8 | 0.00 | 0.00 | 0.00 | 91 | 1019.3 |
| 20260504203041 | 60 | 243 | 5.2 | 10.4 | 0.00 | 0.00 | 0.00 | 90 | 1019.1 |
| 20260504201545 | 60 | 238 | 3.5 | 7.8 | 0.00 | 0.00 | 0.00 | 90 | 1019.0 |
| 20260504200038 | 61 | 245 | 2.6 | 7.8 | 0.00 | 0.00 | 0.00 | 90 | 1018.6 |
| 20260504194536 | 61 | 255 | 2.6 | 7.0 | 0.00 | 0.00 | 0.00 | 90 | 1019.1 |
| 20260504193036 | 61 | 259 | 2.6 | 7.8 | 0.00 | 0.00 | 0.00 | 90 | 1019.3 |
| 20260504191545 | 62 | 232 | 3.5 | 9.6 | 0.00 | 0.00 | 0.00 | 89 | 1018.8 |
| 20260504190039 | 63 | 282 | 6.1 | 10.4 | 0.00 | 0.00 | 0.00 | 88 | 1019.2 |
| 20260504184552 | 63 | 270 | 2.6 | 7.8 | 0.00 | 0.00 | 0.00 | 88 | 1018.3 |
| 20260504183036 | 63 | 260 | 5.2 | 10.4 | 0.00 | 0.00 | 0.00 | 87 | 1018.8 |
| 20260504181538 | 64 | 271 | 3.5 | 9.6 | 0.00 | 0.00 | 0.00 | 87 | 1018.7 |
| 20260504180035 | 65 | 233 | 6.1 | 10.4 | 0.00 | 0.00 | 0.00 | 85 | 1019.0 |
| 20260504174541 | 66 | 268 | 5.2 | 10.4 | 0.00 | 0.00 | 0.00 | 84 | 1019.1 |
| 20260504173038 | 65 | 180 | 4.3 | 9.6 | 0.00 | 0.00 | 0.00 | 85 | 1019.0 |
| 20260504171538 | 64 | 256 | 5.2 | 9.6 | 0.00 | 0.00 | 0.00 | 87 | 1019.3 |
| 20260504081537 | 47 | 0 | 0.0 | 0.0 | 0.00 | 0.00 | 0.00 | 94 | 1019.5 |
| 20260504044537 | 42 | 0 | 0.0 | 0.9 | 0.00 | 0.00 | 0.00 | 94 | 1021.2 |
| 20260504043037 | 42 | 0 | 0.0 | 0.9 | 0.00 | 0.00 | 0.00 | 94 | 1021.3 |
| 20260504041537 | 42 | 0 | 0.0 | 0.9 | 0.00 | 0.00 | 0.00 | 94 | 1021.3 |